RPB7216 SKBO-SKCG

Flight info

Callsign RPB7216
Flight time 1h 3m
Altitude 34000
Route DANS4R GIKPU UQ120 DIBAM UW10 UGREB UGRE3B
Aircraft B738/M-SDE3FGHIRWY/S

Departure

Time 2026-04-25 05:04
Airport El Dorado International Airport (SKBO)

Arrival

Time 2026-04-25 06:07
Airport Rafael Nuñez International Airport (SKCG)
Time Latitude Longitude Altitude Speed Heading
2026-04-25 04:17 4.69809 -74.14563 8369 ft 0 kts 36°
2026-04-25 04:43 4.69805 -74.14566 8370 ft 3 kts 36°
2026-04-25 04:44 4.69787 -74.14580 8369 ft 4 kts 34°
2026-04-25 04:44 4.69765 -74.14586 8370 ft 4 kts 337°
2026-04-25 04:44 4.69744 -74.14571 8369 ft 4 kts 310°
2026-04-25 04:44 4.69735 -74.14561 8370 ft 3 kts 307°
2026-04-25 04:45 4.69752 -74.14582 8369 ft 4 kts 307°
2026-04-25 04:45 4.69768 -74.14604 8369 ft 4 kts 307°
2026-04-25 04:45 4.69785 -74.14625 8369 ft 4 kts 307°
2026-04-25 04:45 4.69789 -74.14631 8369 ft 0 kts 307°
2026-04-25 04:48 4.69793 -74.14637 8369 ft 2 kts 307°
2026-04-25 04:49 4.69808 -74.14656 8369 ft 5 kts 307°
2026-04-25 04:49 4.69834 -74.14691 8369 ft 8 kts 307°
2026-04-25 04:49 4.69880 -74.14716 8369 ft 8 kts 11°
2026-04-25 04:49 4.69931 -74.14685 8369 ft 9 kts 36°
2026-04-25 04:50 4.69989 -74.14643 8369 ft 11 kts 36°
2026-04-25 04:50 4.70058 -74.14599 8369 ft 12 kts
2026-04-25 04:50 4.70140 -74.14622 8369 ft 13 kts 12°
2026-04-25 04:50 4.70215 -74.14573 8369 ft 13 kts 38°
2026-04-25 04:51 4.70285 -74.14518 8369 ft 13 kts 37°
2026-04-25 04:51 4.70354 -74.14466 8369 ft 12 kts 37°
2026-04-25 04:51 4.70421 -74.14416 8369 ft 12 kts 37°
2026-04-25 04:51 4.70440 -74.14349 8369 ft 12 kts 120°
2026-04-25 04:52 4.70392 -74.14282 8369 ft 12 kts 127°
2026-04-25 04:52 4.70339 -74.14212 8369 ft 13 kts 128°
2026-04-25 04:52 4.70282 -74.14139 8369 ft 13 kts 126°
2026-04-25 04:52 4.70227 -74.14064 8368 ft 13 kts 127°
2026-04-25 04:53 4.70171 -74.13992 8369 ft 13 kts 127°
2026-04-25 04:53 4.70117 -74.13920 8368 ft 13 kts 127°
2026-04-25 04:53 4.70064 -74.13850 8368 ft 12 kts 127°
2026-04-25 04:53 4.70013 -74.13783 8369 ft 12 kts 127°
2026-04-25 04:54 4.69963 -74.13717 8369 ft 12 kts 127°
2026-04-25 04:54 4.69913 -74.13651 8369 ft 12 kts 127°
2026-04-25 04:54 4.69860 -74.13579 8369 ft 14 kts 127°
2026-04-25 04:54 4.69797 -74.13496 8369 ft 16 kts 125°
2026-04-25 04:55 4.69729 -74.13405 8369 ft 16 kts 126°
2026-04-25 04:55 4.69664 -74.13320 8368 ft 15 kts 128°
2026-04-25 04:55 4.69600 -74.13238 8369 ft 15 kts 127°
2026-04-25 04:55 4.69541 -74.13159 8369 ft 14 kts 127°
2026-04-25 04:56 4.69479 -74.13076 8368 ft 16 kts 127°
2026-04-25 04:56 4.69410 -74.12985 8368 ft 17 kts 127°
2026-04-25 04:56 4.69339 -74.12890 8368 ft 17 kts 127°
2026-04-25 04:56 4.69270 -74.12799 8368 ft 16 kts 127°
2026-04-25 04:57 4.69206 -74.12716 8368 ft 8 kts 127°
2026-04-25 04:57 4.69174 -74.12674 8368 ft 7 kts 127°
2026-04-25 04:57 4.69154 -74.12647 8369 ft 7 kts 122°
2026-04-25 04:57 4.69144 -74.12599 8368 ft 7 kts 95°
2026-04-25 04:58 4.69159 -74.12549 8368 ft 8 kts 47°
2026-04-25 04:58 4.69171 -74.12540 8368 ft 0 kts 30°
2026-04-25 04:59 4.69172 -74.12540 8368 ft 1 kts 30°
2026-04-25 04:59 4.69180 -74.12536 8368 ft 2 kts 25°
2026-04-25 05:00 4.69196 -74.12529 8368 ft 3 kts 18°
2026-04-25 05:00 4.69243 -74.12516 8368 ft 8 kts 18°
2026-04-25 05:00 4.69280 -74.12508 8368 ft 8 kts 349°
2026-04-25 05:00 4.69307 -74.12528 8368 ft 0 kts 311°
2026-04-25 05:02 4.69308 -74.12528 8369 ft 3 kts 311°
2026-04-25 05:03 4.69460 -74.12728 8366 ft 70 kts 307°
2026-04-25 05:03 4.69887 -74.13291 8368 ft 131 kts 308°
2026-04-25 05:03 4.70549 -74.14168 8371 ft 182 kts 306°
2026-04-25 05:03 4.71362 -74.15244 8819 ft 198 kts 307°
2026-04-25 05:04 4.72196 -74.16347 9660 ft 201 kts 307°
2026-04-25 05:04 4.73051 -74.17469 10293 ft 202 kts 310°
2026-04-25 05:04 4.74175 -74.18268 10800 ft 201 kts 346°
2026-04-25 05:04 4.75555 -74.18212 11257 ft 203 kts 18°
2026-04-25 05:05 4.76878 -74.17671 11665 ft 211 kts 24°
2026-04-25 05:05 4.78279 -74.17022 11818 ft 232 kts 24°
2026-04-25 05:05 4.79808 -74.16307 11978 ft 252 kts 24°
2026-04-25 05:05 4.81464 -74.15541 12148 ft 272 kts 24°
2026-04-25 05:06 4.83225 -74.14735 12509 ft 282 kts 24°
2026-04-25 05:06 4.85010 -74.13923 13049 ft 288 kts 24°
2026-04-25 05:06 4.86857 -74.13083 13840 ft 287 kts 24°
2026-04-25 05:06 4.88514 -74.11992 14375 ft 298 kts 41°
2026-04-25 05:07 4.90050 -74.10485 14630 ft 315 kts 45°
2026-04-25 05:07 4.91598 -74.08892 15165 ft 322 kts 45°
2026-04-25 05:07 4.93172 -74.07280 15797 ft 324 kts 45°
2026-04-25 05:07 4.94766 -74.05666 16442 ft 327 kts 44°
2026-04-25 05:08 4.96388 -74.04043 16910 ft 331 kts 44°
2026-04-25 05:08 4.98030 -74.02411 17001 ft 332 kts 44°
2026-04-25 05:08 4.99674 -74.00782 17522 ft 335 kts 44°
2026-04-25 05:08 5.01368 -73.99197 18121 ft 338 kts 34°
2026-04-25 05:09 5.03474 -73.98171 18644 ft 342 kts 16°
2026-04-25 05:09 5.05833 -73.97537 18747 ft 360 kts 13°
2026-04-25 05:09 5.08329 -73.96950 18857 ft 377 kts 12°
2026-04-25 05:09 5.10936 -73.96347 18953 ft 392 kts 12°
2026-04-25 05:10 5.13646 -73.95705 19041 ft 407 kts 13°
2026-04-25 05:10 5.16432 -73.95027 19215 ft 416 kts 13°
2026-04-25 05:10 5.19255 -73.94327 19579 ft 420 kts 13°
2026-04-25 05:10 5.22098 -73.93618 20019 ft 420 kts 13°
2026-04-25 05:11 5.24940 -73.92909 20453 ft 422 kts 13°
2026-04-25 05:11 5.27795 -73.92197 20840 ft 425 kts 13°
2026-04-25 05:11 5.30679 -73.91479 21206 ft 428 kts 13°
2026-04-25 05:12 5.36466 -73.90038 21298 ft 428 kts 13°
2026-04-25 05:12 5.39358 -73.89318 21308 ft 429 kts 13°
2026-04-25 05:12 5.42224 -73.88603 21301 ft 429 kts 13°
2026-04-25 05:12 5.45131 -73.87879 21275 ft 429 kts 13°
2026-04-25 05:13 5.48029 -73.87156 21283 ft 429 kts 13°
2026-04-25 05:13 5.50931 -73.86433 21280 ft 429 kts 13°
2026-04-25 05:13 5.53837 -73.85711 21348 ft 434 kts 12°
2026-04-25 05:13 5.56796 -73.85050 21728 ft 435 kts 11°
2026-04-25 05:14 5.59761 -73.84446 22198 ft 434 kts 10°
2026-04-25 05:14 5.62734 -73.83857 22591 ft 436 kts 10°
2026-04-25 05:14 5.65716 -73.83266 22918 ft 439 kts 10°
2026-04-25 05:15 5.71746 -73.82048 23557 ft 444 kts 10°
2026-04-25 05:15 5.74781 -73.81426 23877 ft 446 kts 11°
2026-04-25 05:15 5.77830 -73.80798 24138 ft 449 kts 11°
2026-04-25 05:15 5.80900 -73.80165 24394 ft 451 kts 11°
2026-04-25 05:16 5.83977 -73.79530 24653 ft 453 kts 11°
2026-04-25 05:16 5.87078 -73.78890 24910 ft 455 kts 11°
2026-04-25 05:16 5.90182 -73.78250 25162 ft 457 kts 11°
2026-04-25 05:16 5.93308 -73.77606 25401 ft 459 kts 11°
2026-04-25 05:17 5.96449 -73.76958 25649 ft 461 kts 11°
2026-04-25 05:17 5.99600 -73.76308 25890 ft 463 kts 11°
2026-04-25 05:17 6.02724 -73.75664 26124 ft 465 kts 11°
2026-04-25 05:17 6.05900 -73.75010 26360 ft 467 kts 11°
2026-04-25 05:18 6.09090 -73.74353 26594 ft 469 kts 12°
2026-04-25 05:18 6.12288 -73.73695 26822 ft 471 kts 12°
2026-04-25 05:18 6.15509 -73.73032 27039 ft 472 kts 12°
2026-04-25 05:18 6.18733 -73.72368 27254 ft 474 kts 12°
2026-04-25 05:19 6.21976 -73.71700 27460 ft 476 kts 12°
2026-04-25 05:19 6.25245 -73.71026 27668 ft 478 kts 12°
2026-04-25 05:19 6.28504 -73.70355 27876 ft 480 kts 12°
2026-04-25 05:19 6.31786 -73.69678 28079 ft 482 kts 12°
2026-04-25 05:20 6.35074 -73.69000 28276 ft 483 kts 12°
2026-04-25 05:20 6.38369 -73.68321 28466 ft 485 kts 12°
2026-04-25 05:20 6.41686 -73.67637 28665 ft 487 kts 12°
2026-04-25 05:20 6.45008 -73.66952 28844 ft 488 kts 12°
2026-04-25 05:21 6.48356 -73.66319 29032 ft 490 kts
2026-04-25 05:21 6.51761 -73.66075 29262 ft 491 kts
2026-04-25 05:21 6.55166 -73.65990 29569 ft 490 kts
2026-04-25 05:21 6.58577 -73.65939 29855 ft 489 kts
2026-04-25 05:22 6.61928 -73.65893 30107 ft 489 kts
2026-04-25 05:22 6.65340 -73.65838 30335 ft 489 kts
2026-04-25 05:22 6.68751 -73.65770 30589 ft 488 kts
2026-04-25 05:22 6.72141 -73.65693 30843 ft 488 kts
2026-04-25 05:23 6.75530 -73.65609 31073 ft 488 kts
2026-04-25 05:23 6.78927 -73.65521 31302 ft 488 kts
2026-04-25 05:23 6.82318 -73.65432 31552 ft 487 kts
2026-04-25 05:23 6.85702 -73.65343 31808 ft 487 kts
2026-04-25 05:24 6.89083 -73.65255 32056 ft 486 kts
2026-04-25 05:24 6.92470 -73.65167 32297 ft 487 kts
2026-04-25 05:24 6.95863 -73.65080 32550 ft 486 kts
2026-04-25 05:24 6.99243 -73.64993 32824 ft 486 kts
2026-04-25 05:25 7.02616 -73.64906 33091 ft 486 kts
2026-04-25 05:25 7.05996 -73.64819 33343 ft 486 kts
2026-04-25 05:25 7.09376 -73.64732 33614 ft 486 kts
2026-04-25 05:25 7.12753 -73.64645 33882 ft 485 kts
2026-04-25 05:26 7.16127 -73.64558 33945 ft 488 kts
2026-04-25 05:26 7.22921 -73.64383 33963 ft 487 kts
2026-04-25 05:27 7.29672 -73.64210 33951 ft 484 kts
2026-04-25 05:27 7.36458 -73.64034 33962 ft 491 kts
2026-04-25 05:28 7.43342 -73.63856 33959 ft 496 kts
2026-04-25 05:28 7.50206 -73.63680 33947 ft 498 kts
2026-04-25 05:29 7.57148 -73.63501 33951 ft 499 kts
2026-04-25 05:29 7.64086 -73.63323 33942 ft 499 kts
2026-04-25 05:30 7.71025 -73.63144 33939 ft 498 kts
2026-04-25 05:30 7.77951 -73.62965 33944 ft 497 kts
2026-04-25 05:31 7.84866 -73.62787 33939 ft 496 kts
2026-04-25 05:31 7.91770 -73.62608 33942 ft 496 kts
2026-04-25 05:32 7.98622 -73.62431 33949 ft 495 kts
2026-04-25 05:32 8.05513 -73.62253 33962 ft 495 kts
2026-04-25 05:33 8.12409 -73.62075 33968 ft 495 kts
2026-04-25 05:33 8.15850 -73.62129 33936 ft 497 kts 352°
2026-04-25 05:33 8.19174 -73.63039 33970 ft 497 kts 336°
2026-04-25 05:33 8.22166 -73.64762 33954 ft 496 kts 320°
2026-04-25 05:34 8.24623 -73.67178 33973 ft 492 kts 310°
2026-04-25 05:34 8.29148 -73.72394 33953 ft 494 kts 309°
2026-04-25 05:35 8.33689 -73.77630 33939 ft 496 kts 309°
2026-04-25 05:35 8.38296 -73.82843 33955 ft 498 kts 310°
2026-04-25 05:36 8.42932 -73.88043 33948 ft 499 kts 310°
2026-04-25 05:36 8.47581 -73.93255 33940 ft 499 kts 310°
2026-04-25 05:37 8.52234 -73.98476 33949 ft 499 kts 310°
2026-04-25 05:37 8.56847 -74.03659 33936 ft 499 kts 310°
2026-04-25 05:38 8.61478 -74.08864 33939 ft 498 kts 310°
2026-04-25 05:38 8.66112 -74.14076 33932 ft 497 kts 309°
2026-04-25 05:39 8.70730 -74.19270 33930 ft 496 kts 309°
2026-04-25 05:39 8.75332 -74.24448 33931 ft 494 kts 309°
2026-04-25 05:40 8.79921 -74.29615 33924 ft 493 kts 309°
2026-04-25 05:40 8.84507 -74.34780 33540 ft 497 kts 309°
2026-04-25 05:40 8.86822 -74.37391 32889 ft 497 kts 310°
2026-04-25 05:41 8.89128 -74.39989 32185 ft 497 kts 310°
2026-04-25 05:41 8.91409 -74.42559 31463 ft 497 kts 310°
2026-04-25 05:41 8.93724 -74.45169 30659 ft 499 kts 310°
2026-04-25 05:41 8.96043 -74.47784 29858 ft 500 kts 310°
2026-04-25 05:42 8.98357 -74.50393 29220 ft 494 kts 310°
2026-04-25 05:42 9.00643 -74.52971 28574 ft 490 kts 310°
2026-04-25 05:42 9.02906 -74.55523 27968 ft 484 kts 310°
2026-04-25 05:42 9.05143 -74.58047 27374 ft 479 kts 310°
2026-04-25 05:43 9.07352 -74.60540 26791 ft 474 kts 311°
2026-04-25 05:43 9.09536 -74.63006 26210 ft 469 kts 311°
2026-04-25 05:43 9.11705 -74.65456 25620 ft 465 kts 311°
2026-04-25 05:43 9.13855 -74.67885 25033 ft 458 kts 311°
2026-04-25 05:44 9.15948 -74.70249 24464 ft 445 kts 311°
2026-04-25 05:44 9.17983 -74.72549 23915 ft 432 kts 311°
2026-04-25 05:44 9.19964 -74.74788 23350 ft 421 kts 311°
2026-04-25 05:44 9.21888 -74.76963 22763 ft 410 kts 311°
2026-04-25 05:45 9.23763 -74.79083 22223 ft 398 kts 311°
2026-04-25 05:45 9.25570 -74.81126 21722 ft 389 kts 311°
2026-04-25 05:45 9.27372 -74.83163 21245 ft 387 kts 311°
2026-04-25 05:45 9.29264 -74.85102 20759 ft 390 kts 319°
2026-04-25 05:46 9.31467 -74.86771 20275 ft 402 kts 324°
2026-04-25 05:46 9.33781 -74.88395 19737 ft 405 kts 324°
2026-04-25 05:46 9.36098 -74.90006 19209 ft 403 kts 324°
2026-04-25 05:46 9.37618 -74.91068 18859 ft 401 kts 324°
2026-04-25 05:47 9.39891 -74.92669 18341 ft 392 kts 324°
2026-04-25 05:47 9.42085 -74.94227 17829 ft 380 kts 324°
2026-04-25 05:47 9.44217 -74.95748 17321 ft 369 kts 324°
2026-04-25 05:47 9.46292 -74.97232 16849 ft 359 kts 324°
2026-04-25 05:48 9.48310 -74.98674 16388 ft 350 kts 324°
2026-04-25 05:48 9.50277 -75.00079 15944 ft 342 kts 324°
2026-04-25 05:48 9.52201 -75.01450 15513 ft 334 kts 324°
2026-04-25 05:48 9.54082 -75.02790 15092 ft 327 kts 323°
2026-04-25 05:49 9.55927 -75.04104 14675 ft 321 kts 323°
2026-04-25 05:49 9.57738 -75.05395 14268 ft 316 kts 323°
2026-04-25 05:49 9.59524 -75.06668 13843 ft 312 kts 323°
2026-04-25 05:49 9.61285 -75.07923 13409 ft 308 kts 323°
2026-04-25 05:50 9.63024 -75.09164 12982 ft 304 kts 323°
2026-04-25 05:50 9.64744 -75.10391 12581 ft 301 kts 323°
2026-04-25 05:50 9.66447 -75.11607 12197 ft 302 kts 323°
2026-04-25 05:50 9.68158 -75.12829 11814 ft 305 kts 323°
2026-04-25 05:51 9.69905 -75.14076 11414 ft 308 kts 323°
2026-04-25 05:51 9.71660 -75.15327 11016 ft 306 kts 323°
2026-04-25 05:51 9.73361 -75.16540 10878 ft 296 kts 323°
2026-04-25 05:51 9.75053 -75.17710 10730 ft 294 kts 325°
2026-04-25 05:52 9.76760 -75.18848 10599 ft 292 kts 325°
2026-04-25 05:52 9.78463 -75.19977 10495 ft 294 kts 325°
2026-04-25 05:52 9.80187 -75.21121 10369 ft 297 kts 325°
2026-04-25 05:52 9.81916 -75.22273 10240 ft 295 kts 325°
2026-04-25 05:53 9.83612 -75.23403 10102 ft 288 kts 325°
2026-04-25 05:53 9.85265 -75.24507 9943 ft 282 kts 325°
2026-04-25 05:53 9.86884 -75.25589 9646 ft 282 kts 325°
2026-04-25 05:53 9.88539 -75.26696 9356 ft 281 kts 325°
2026-04-25 05:54 9.90146 -75.27770 9073 ft 280 kts 325°
2026-04-25 05:54 9.91788 -75.28868 8774 ft 278 kts 325°
2026-04-25 05:54 9.94990 -75.31009 8209 ft 277 kts 325°
2026-04-25 05:55 9.96593 -75.32081 7926 ft 276 kts 325°
2026-04-25 05:55 9.98195 -75.33152 7639 ft 275 kts 325°
2026-04-25 05:55 9.99787 -75.34217 7359 ft 275 kts 325°
2026-04-25 05:55 10.01379 -75.35283 7079 ft 274 kts 325°
2026-04-25 05:56 10.02971 -75.36349 6793 ft 273 kts 325°
2026-04-25 05:56 10.04556 -75.37410 6504 ft 271 kts 325°
2026-04-25 05:56 10.06116 -75.38454 6222 ft 267 kts 325°
2026-04-25 05:56 10.07666 -75.39492 5935 ft 267 kts 325°
2026-04-25 05:57 10.09215 -75.40530 5649 ft 266 kts 325°
2026-04-25 05:57 10.10761 -75.41565 5370 ft 266 kts 325°
2026-04-25 05:57 10.12301 -75.42597 5094 ft 265 kts 325°
2026-04-25 05:57 10.13840 -75.43628 4819 ft 264 kts 325°
2026-04-25 05:58 10.15372 -75.44655 4534 ft 264 kts 325°
2026-04-25 05:58 10.16908 -75.45684 4236 ft 264 kts 325°
2026-04-25 05:58 10.18433 -75.46707 3959 ft 260 kts 325°
2026-04-25 05:58 10.19922 -75.47704 3679 ft 253 kts 325°
2026-04-25 05:59 10.21370 -75.48675 3446 ft 244 kts 325°
2026-04-25 05:59 10.22747 -75.49598 3335 ft 231 kts 325°
2026-04-25 05:59 10.24041 -75.50465 3218 ft 219 kts 325°
2026-04-25 05:59 10.25281 -75.51295 3126 ft 210 kts 325°
2026-04-25 06:00 10.26509 -75.52138 3067 ft 221 kts 319°
2026-04-25 06:00 10.27385 -75.53435 3008 ft 230 kts 282°
2026-04-25 06:00 10.27292 -75.55042 3013 ft 233 kts 250°
2026-04-25 06:00 10.26401 -75.56381 2976 ft 231 kts 218°
2026-04-25 06:01 10.24931 -75.56970 2987 ft 229 kts 187°
2026-04-25 06:01 10.23347 -75.57068 2982 ft 229 kts 182°
2026-04-25 06:01 10.21755 -75.57107 2979 ft 229 kts 182°
2026-04-25 06:01 10.20162 -75.57092 2966 ft 229 kts 170°
2026-04-25 06:02 10.18764 -75.56373 2981 ft 229 kts 133°
2026-04-25 06:02 10.18071 -75.54924 2991 ft 235 kts 96°
2026-04-25 06:02 10.18406 -75.53307 2978 ft 239 kts 57°
2026-04-25 06:02 10.19660 -75.52254 2973 ft 238 kts 17°
2026-04-25 06:03 10.21282 -75.52081 3004 ft 237 kts 359°
2026-04-25 06:03 10.22940 -75.52068 2982 ft 239 kts
2026-04-25 06:03 10.24608 -75.52032 2988 ft 240 kts
2026-04-25 06:03 10.26280 -75.51982 2983 ft 240 kts
2026-04-25 06:04 10.27953 -75.51929 2824 ft 241 kts
2026-04-25 06:04 10.29621 -75.51869 2554 ft 235 kts
2026-04-25 06:04 10.31206 -75.51808 2327 ft 220 kts
2026-04-25 06:04 10.32666 -75.51751 2204 ft 201 kts
2026-04-25 06:05 10.34002 -75.51698 2072 ft 184 kts
2026-04-25 06:05 10.35211 -75.51650 1973 ft 163 kts
2026-04-25 06:05 10.36334 -75.51606 1529 ft 163 kts
2026-04-25 06:05 10.37454 -75.51561 1158 ft 157 kts
2026-04-25 06:06 10.38533 -75.51518 934 ft 155 kts
2026-04-25 06:06 10.39612 -75.51476 742 ft 156 kts
2026-04-25 06:06 10.40712 -75.51443 604 ft 158 kts
2026-04-25 06:06 10.41807 -75.51385 375 ft 157 kts
2026-04-25 06:07 10.42890 -75.51345 127 ft 153 kts
2026-04-25 06:07 10.43909 -75.51301 49 ft 135 kts
2026-04-25 06:07 10.44700 -75.51272 49 ft 89 kts
2026-04-25 06:07 10.45074 -75.51255 50 ft 42 kts
2026-04-25 06:08 10.45231 -75.51277 50 ft 15 kts 352°
2026-04-25 06:08 10.45240 -75.51232 48 ft 11 kts 178°
2026-04-25 06:08 10.45164 -75.51250 50 ft 11 kts 187°
2026-04-25 06:08 10.45086 -75.51257 50 ft 11 kts 181°
2026-04-25 06:09 10.44971 -75.51259 50 ft 22 kts 181°
2026-04-25 06:09 10.44808 -75.51268 50 ft 21 kts 180°
2026-04-25 06:09 10.44698 -75.51271 49 ft 12 kts 187°
2026-04-25 06:09 10.44662 -75.51288 46 ft 6 kts 225°
2026-04-25 06:10 10.44649 -75.51339 50 ft 8 kts 264°
2026-04-25 06:10 10.44647 -75.51350 50 ft 0 kts 258°
2026-04-25 06:10 10.44647 -75.51352 50 ft 1 kts 258°
2026-04-25 06:10 10.44635 -75.51398 50 ft 9 kts 265°
2026-04-25 06:11 10.44592 -75.51454 50 ft 10 kts 193°
2026-04-25 06:11 10.44562 -75.51467 50 ft 4 kts 241°
2026-04-25 06:11 10.44568 -75.51510 50 ft 8 kts 275°
2026-04-25 06:11 10.44570 -75.51540 50 ft 2 kts 272°
2026-04-25 06:12 10.44570 -75.51545 50 ft 0 kts 272°